| time (UTC) | temp C | wind direction | speed KPH | gust KPH | rain 1hr cm | rain 24hr cm | rain mn cm | humidity % | barometer mb |
| 20260506235640 | 2 | 266 | 1.6 | 4.8 | 0.10 | 9.50 | 0.03 | 92 | 1011.7 |
| 20260506235126 | 2 | 266 | 1.6 | 4.8 | 0.10 | 9.50 | 0.03 | 92 | 1011.6 |
| 20260506234630 | 2 | 266 | 1.6 | 4.8 | 0.10 | 9.50 | 0.03 | 92 | 1011.6 |
| 20260506234135 | 2 | 266 | 1.6 | 4.8 | 0.10 | 9.50 | 0.03 | 92 | 1011.7 |
| 20260506233640 | 2 | 266 | 3.2 | 4.8 | 0.10 | 9.50 | 0.03 | 92 | 1011.7 |
| 20260506233125 | 2 | 292 | 1.6 | 4.8 | 0.10 | 9.50 | 0.03 | 91 | 1011.6 |
| 20260506232633 | 2 | 300 | 3.2 | 8.0 | 0.10 | 9.50 | 0.03 | 91 | 1011.6 |
| 20260506232138 | 2 | 241 | 3.2 | 11.3 | 0.00 | 9.40 | 0.00 | 90 | 1011.6 |
| 20260506231642 | 2 | 264 | 4.8 | 9.7 | 0.00 | 9.40 | 0.00 | 90 | 1011.6 |
| 20260506231125 | 2 | 269 | 3.2 | 8.0 | 0.00 | 9.40 | 0.00 | 90 | 1011.6 |
| 20260506230629 | 2 | 347 | 1.6 | 8.0 | 0.00 | 10.21 | 0.00 | 89 | 1011.5 |
| 20260506230134 | 2 | 224 | 3.2 | 8.0 | 0.00 | 10.21 | 0.00 | 89 | 1011.4 |
| 20260506225638 | 2 | 224 | 6.4 | 8.0 | 0.10 | 10.21 | 0.00 | 88 | 1011.4 |
| 20260506225125 | 2 | 191 | 4.8 | 9.7 | 0.10 | 10.21 | 0.00 | 88 | 1011.4 |
| 20260506224629 | 2 | 298 | 3.2 | 9.7 | 0.10 | 10.21 | 0.00 | 89 | 1011.6 |
| 20260506224133 | 2 | 283 | 6.4 | 9.7 | 0.10 | 10.21 | 0.00 | 89 | 1011.6 |
| 20260506223623 | 2 | 15 | 6.4 | 11.3 | 0.10 | 10.21 | 0.00 | 89 | 1011.5 |
| 20260506223128 | 2 | 221 | 3.2 | 6.4 | 0.10 | 10.21 | 0.00 | 89 | 1011.6 |
| 20260506222632 | 2 | 69 | 3.2 | 8.0 | 0.20 | 10.21 | 0.00 | 89 | 1011.6 |
| 20260506222136 | 2 | 328 | 3.2 | 8.0 | 0.20 | 10.21 | 0.00 | 90 | 1011.7 |
| 20260506221641 | 2 | 338 | 4.8 | 9.7 | 0.20 | 10.21 | 0.00 | 90 | 1011.7 |
| 20260506221126 | 2 | 355 | 6.4 | 9.7 | 0.20 | 10.21 | 0.00 | 91 | 1011.7 |
| 20260506220630 | 2 | 10 | 3.2 | 8.0 | 0.20 | 10.90 | 2.59 | 91 | 1011.7 |
| 20260506220134 | 2 | 26 | 6.4 | 11.3 | 0.30 | 10.90 | 2.59 | 92 | 1011.7 |
| 20260506215637 | 2 | 59 | 4.8 | 11.3 | 0.20 | 10.79 | 2.57 | 93 | 1011.7 |
| 20260506215142 | 2 | 46 | 3.2 | 11.3 | 0.20 | 10.79 | 2.57 | 94 | 1011.6 |
| 20260506214625 | 2 | 110 | 4.8 | 11.3 | 0.30 | 10.79 | 2.57 | 93 | 1011.7 |
| 20260506214134 | 2 | 90 | 6.4 | 11.3 | 0.30 | 10.79 | 2.57 | 93 | 1011.6 |
| 20260506213639 | 2 | 155 | 3.2 | 9.7 | 0.30 | 10.79 | 2.57 | 92 | 1011.7 |
| 20260506213125 | 2 | 230 | 3.2 | 11.3 | 0.30 | 10.79 | 2.57 | 92 | 1011.7 |
| 20260506212629 | 2 | 256 | 1.6 | 17.7 | 0.20 | 10.69 | 2.54 | 92 | 1011.8 |
| 20260506212133 | 2 | 257 | 8.0 | 20.9 | 0.30 | 10.69 | 2.54 | 92 | 1011.7 |
| 20260506211637 | 2 | 245 | 16.1 | 20.9 | 0.30 | 10.69 | 2.54 | 91 | 1011.7 |
| 20260506211142 | 2 | 279 | 6.4 | 17.7 | 0.30 | 10.69 | 2.54 | 91 | 1011.7 |
| 20260506210627 | 2 | 260 | 14.5 | 19.3 | 0.41 | 10.90 | 2.54 | 91 | 1011.6 |
| 20260506210131 | 2 | 259 | 12.9 | 19.3 | 0.30 | 10.79 | 2.51 | 92 | 1011.6 |
| 20260506205634 | 2 | 309 | 9.7 | 19.3 | 0.30 | 10.79 | 2.51 | 92 | 1011.6 |
| 20260506205123 | 2 | 298 | 12.9 | 19.3 | 0.41 | 10.79 | 2.51 | 94 | 1011.7 |
| 20260506204627 | 2 | 277 | 4.8 | 11.3 | 0.30 | 10.69 | 2.49 | 96 | 1011.7 |
| 20260506204132 | 2 | 310 | 6.4 | 14.5 | 0.41 | 10.69 | 2.49 | 96 | 1011.7 |
| 20260506203636 | 1 | 343 | 9.7 | 19.3 | 0.41 | 10.69 | 2.49 | 96 | 1011.6 |
| 20260506203141 | 1 | 9 | 12.9 | 20.9 | 0.51 | 10.69 | 2.49 | 96 | 1011.7 |
| 20260506202626 | 1 | 330 | 12.9 | 24.1 | 0.41 | 10.59 | 2.46 | 95 | 1011.7 |
| 20260506202130 | 1 | 333 | 19.3 | 24.1 | 0.41 | 10.59 | 2.46 | 94 | 1011.6 |
| 20260506201635 | 2 | 327 | 6.4 | 12.9 | 0.51 | 10.59 | 2.46 | 95 | 1011.6 |
| 20260506201139 | 2 | 260 | 9.7 | 16.1 | 0.51 | 10.59 | 2.46 | 95 | 1011.6 |
| 20260506200625 | 2 | 229 | 11.3 | 16.1 | 0.41 | 10.69 | 2.44 | 95 | 1011.5 |
| 20260506200130 | 2 | 246 | 4.8 | 8.0 | 0.41 | 10.69 | 2.44 | 95 | 1011.5 |
| 20260506195638 | 2 | 167 | 3.2 | 11.3 | 0.51 | 10.69 | 2.44 | 95 | 1011.4 |
| 20260506195123 | 2 | 155 | 6.4 | 14.5 | 0.41 | 10.59 | 2.41 | 94 | 1011.3 |
| 20260506194628 | 2 | 115 | 8.0 | 14.5 | 0.51 | 10.59 | 2.41 | 93 | 1011.2 |
| 20260506194131 | 2 | 110 | 9.7 | 19.3 | 0.41 | 10.49 | 2.39 | 92 | 1011.2 |
| 20260506193634 | 2 | 117 | 9.7 | 19.3 | 0.41 | 10.49 | 2.39 | 91 | 1011.2 |
| 20260506193138 | 2 | 122 | 4.8 | 16.1 | 0.41 | 10.39 | 2.36 | 89 | 1011.1 |
| 20260506192641 | 2 | 69 | 4.8 | 8.0 | 0.41 | 10.39 | 2.36 | 89 | 1010.9 |
| 20260506192124 | 3 | 163 | 3.2 | 9.7 | 0.41 | 10.39 | 2.36 | 88 | 1010.9 |
| 20260506191629 | 3 | 173 | 3.2 | 9.7 | 0.30 | 10.31 | 2.34 | 88 | 1010.8 |
| 20260506191133 | 3 | 281 | 3.2 | 9.7 | 0.41 | 10.31 | 2.34 | 88 | 1010.7 |
| 20260506190638 | 3 | 339 | 4.8 | 9.7 | 0.41 | 10.59 | 2.34 | 88 | 1010.7 |
| 20260506190127 | 3 | 360 | 4.8 | 14.5 | 0.51 | 10.59 | 2.34 | 88 | 1010.7 |
| 20260506185632 | 2 | 297 | 8.0 | 14.5 | 0.51 | 10.49 | 2.31 | 89 | 1010.6 |
| 20260506185136 | 2 | 360 | 6.4 | 9.7 | 0.61 | 10.49 | 2.31 | 90 | 1010.4 |
| 20260506184640 | 2 | 67 | 6.4 | 9.7 | 0.71 | 10.39 | 2.29 | 89 | 1010.6 |
| 20260506184125 | 2 | 15 | 1.6 | 14.5 | 0.79 | 10.39 | 2.29 | 90 | 1010.4 |
| 20260506183629 | 2 | 337 | 9.7 | 14.5 | 0.89 | 10.39 | 2.29 | 90 | 1010.4 |
| 20260506183134 | 2 | 333 | 3.2 | 6.4 | 0.79 | 10.31 | 2.26 | 90 | 1010.4 |
| 20260506182639 | 2 | 250 | 1.6 | 3.2 | 0.89 | 10.31 | 2.26 | 91 | 1010.5 |
| 20260506182124 | 2 | 250 | 1.6 | 8.0 | 0.89 | 10.31 | 2.26 | 91 | 1010.5 |
| 20260506181628 | 2 | 250 | 3.2 | 8.0 | 0.99 | 10.31 | 2.26 | 91 | 1010.4 |
| 20260506181137 | 2 | 304 | 4.8 | 14.5 | 0.89 | 10.21 | 2.24 | 90 | 1010.3 |
| 20260506180622 | 1 | 346 | 3.2 | 14.5 | 0.99 | 10.31 | 2.24 | 93 | 1010.2 |
| 20260506180128 | 1 | 9 | 6.4 | 14.5 | 0.89 | 10.21 | 2.21 | 95 | 1010.2 |
| 20260506175632 | 1 | 327 | 3.2 | 11.3 | 0.79 | 10.11 | 2.18 | 96 | 1010.5 |
| 20260506175137 | 1 | 36 | 8.0 | 11.3 | 0.71 | 9.91 | 2.13 | 95 | 1010.2 |
| 20260506174642 | 1 | 59 | 3.2 | 12.9 | 0.61 | 9.80 | 2.11 | 95 | 1010.3 |
| 20260506174128 | 1 | 65 | 8.0 | 14.5 | 0.51 | 9.70 | 2.08 | 95 | 1010.2 |
| 20260506173633 | 1 | 62 | 9.7 | 14.5 | 0.51 | 9.60 | 2.06 | 95 | 1010.1 |
| 20260506173136 | 1 | 66 | 8.0 | 20.9 | 0.51 | 9.60 | 2.06 | 95 | 1010.2 |
| 20260506172640 | 1 | 67 | 12.9 | 20.9 | 0.41 | 9.50 | 2.03 | 95 | 1010.1 |
| 20260506172128 | 1 | 49 | 4.8 | 12.9 | 0.51 | 9.50 | 2.03 | 95 | 1010.1 |
| 20260506171631 | 1 | 51 | 3.2 | 16.1 | 0.51 | 9.40 | 2.01 | 96 | 1010.1 |
| 20260506171135 | 1 | 13 | 12.9 | 22.5 | 0.51 | 9.30 | 1.98 | 95 | 1009.9 |
| 20260506170640 | 1 | 10 | 11.3 | 25.7 | 0.51 | 9.40 | 1.98 | 95 | 1009.9 |
| 20260506170124 | 1 | 355 | 17.7 | 25.7 | 0.51 | 9.40 | 1.98 | 95 | 1009.9 |
| 20260506165628 | 1 | 336 | 14.5 | 22.5 | 0.61 | 9.40 | 1.98 | 93 | 1009.9 |
| 20260506165132 | 2 | 19 | 9.7 | 17.7 | 0.51 | 9.30 | 1.96 | 92 | 1009.6 |
| 20260506164636 | 2 | 33 | 6.4 | 19.3 | 0.51 | 9.30 | 1.96 | 93 | 1009.1 |
| 20260506164141 | 2 | 42 | 9.7 | 19.3 | 0.61 | 9.30 | 1.96 | 95 | 1009.1 |
| 20260506163626 | 2 | 97 | 8.0 | 16.1 | 0.51 | 9.19 | 1.93 | 95 | 1009.2 |
| 20260506163132 | 3 | 277 | 9.7 | 22.5 | 0.61 | 9.19 | 1.93 | 96 | 1009.1 |
| 20260506162640 | 3 | 190 | 9.7 | 27.4 | 0.71 | 9.19 | 1.93 | 95 | 1008.5 |
| 20260506162124 | 3 | 355 | 9.7 | 48.3 | 0.61 | 9.09 | 1.91 | 95 | 1008.9 |
| 20260506161629 | 3 | 139 | 20.9 | 48.3 | 0.51 | 8.99 | 1.88 | 96 | 1008.8 |
| 20260506161134 | 3 | 86 | 14.5 | 38.6 | 0.51 | 8.89 | 1.85 | 97 | 1008.9 |
| 20260506160638 | 3 | 117 | 19.3 | 43.5 | 0.51 | 8.99 | 1.85 | 97 | 1008.8 |
| 20260506160124 | 3 | 360 | 22.5 | 41.8 | 0.41 | 8.89 | 1.83 | 97 | 1008.6 |
| 20260506155628 | 3 | 153 | 20.9 | 45.1 | 0.41 | 8.89 | 1.83 | 97 | 1008.6 |
| 20260506155132 | 3 | 219 | 22.5 | 53.1 | 0.41 | 8.89 | 1.83 | 97 | 1008.4 |
| 20260506154636 | 3 | 136 | 30.6 | 53.1 | 0.41 | 8.89 | 1.83 | 97 | 1008.4 |
| 20260506154141 | 3 | 194 | 19.3 | 43.5 | 0.30 | 8.79 | 1.80 | 97 | 1008.6 |
| 20260506153630 | 3 | 294 | 14.5 | 37.0 | 0.30 | 8.79 | 1.80 | 97 | 1008.2 |
| 20260506153134 | 2 | 123 | 22.5 | 37.0 | 0.20 | 8.71 | 1.78 | 97 | 1008.8 |
| 20260506152637 | 2 | 88 | 1.6 | 16.1 | 0.10 | 8.61 | 1.75 | 97 | 1009.0 |
| 20260506152142 | 2 | 121 | 3.2 | 43.5 | 0.10 | 8.61 | 1.75 | 97 | 1009.0 |
| 20260506151626 | 3 | 71 | 17.7 | 45.1 | 0.00 | 8.51 | 1.73 | 97 | 1008.9 |
| 20260506151131 | 3 | 107 | 19.3 | 37.0 | 0.00 | 8.51 | 1.73 | 97 | 1008.6 |
| 20260506150635 | 3 | 304 | 11.3 | 25.7 | 0.00 | 8.89 | 1.73 | 97 | 1008.8 |
| 20260506150139 | 3 | 5 | 16.1 | 25.7 | 0.00 | 8.89 | 1.73 | 97 | 1008.8 |
| 20260506145623 | 3 | 266 | 11.3 | 29.0 | 0.00 | 8.89 | 1.73 | 97 | 1009.1 |
| 20260506145127 | 3 | 98 | 12.9 | 29.0 | 0.00 | 8.89 | 1.73 | 97 | 1009.2 |
| 20260506144631 | 3 | 120 | 17.7 | 32.2 | 0.00 | 8.89 | 1.73 | 97 | 1009.3 |
| 20260506144139 | 3 | 121 | 22.5 | 38.6 | 0.00 | 8.89 | 1.73 | 97 | 1009.2 |
| 20260506143641 | 4 | 132 | 24.1 | 38.6 | 0.00 | 8.89 | 1.73 | 97 | 1009.2 |
| 20260506143126 | 3 | 90 | 17.7 | 37.0 | 0.00 | 8.89 | 1.73 | 97 | 1009.3 |
| 20260506142628 | 3 | 127 | 24.1 | 38.6 | 0.00 | 8.89 | 1.73 | 97 | 1009.1 |
| 20260506142132 | 4 | 131 | 27.4 | 38.6 | 0.00 | 8.89 | 1.73 | 97 | 1009.6 |
| 20260506141634 | 3 | 134 | 9.7 | 20.9 | 0.00 | 8.89 | 1.73 | 97 | 1009.7 |
| 20260506141137 | 4 | 132 | 14.5 | 24.1 | 0.00 | 8.89 | 1.73 | 97 | 1009.8 |
| 20260506140642 | 4 | 128 | 16.1 | 27.4 | 0.10 | 8.99 | 1.73 | 97 | 1009.7 |
| 20260506140127 | 4 | 119 | 14.5 | 24.1 | 0.20 | 8.99 | 1.73 | 97 | 1009.8 |
| 20260506135632 | 3 | 109 | 6.4 | 24.1 | 0.30 | 8.99 | 1.73 | 97 | 1009.9 |
| 20260506135135 | 3 | 217 | 9.7 | 29.0 | 0.30 | 8.99 | 1.73 | 97 | 1009.9 |
| 20260506134625 | 3 | 323 | 19.3 | 30.6 | 0.30 | 8.99 | 1.73 | 97 | 1009.9 |
| 20260506134127 | 3 | 48 | 16.1 | 37.0 | 0.30 | 8.99 | 1.73 | 97 | 1009.9 |
| 20260506133632 | 3 | 130 | 25.7 | 38.6 | 0.30 | 8.99 | 1.73 | 97 | 1010.0 |
| 20260506133136 | 3 | 119 | 24.1 | 38.6 | 0.30 | 8.99 | 1.73 | 97 | 1010.1 |
| 20260506132641 | 3 | 98 | 24.1 | 38.6 | 0.30 | 8.99 | 1.73 | 97 | 1009.8 |
| 20260506132126 | 3 | 121 | 24.1 | 33.8 | 0.30 | 8.99 | 1.73 | 97 | 1010.0 |
| 20260506131631 | 3 | 73 | 14.5 | 32.2 | 0.30 | 8.99 | 1.73 | 97 | 1010.0 |
| 20260506131135 | 3 | 71 | 22.5 | 33.8 | 0.30 | 8.99 | 1.73 | 97 | 1010.1 |
| 20260506130639 | 3 | 152 | 12.9 | 27.4 | 0.20 | 9.19 | 1.70 | 97 | 1009.9 |
| 20260506130122 | 3 | 160 | 20.9 | 37.0 | 0.10 | 9.09 | 1.68 | 97 | 1009.9 |
| 20260506125628 | 3 | 132 | 25.7 | 37.0 | 0.00 | 8.99 | 1.65 | 97 | 1009.7 |
| 20260506125131 | 3 | 132 | 25.7 | 41.8 | 0.00 | 8.99 | 1.65 | 97 | 1009.9 |
| 20260506124635 | 3 | 140 | 22.5 | 46.7 | 0.00 | 8.99 | 1.65 | 97 | 1010.1 |
| 20260506124138 | 3 | 128 | 30.6 | 46.7 | 0.00 | 8.99 | 1.65 | 97 | 1009.6 |
| 20260506123641 | 3 | 167 | 16.1 | 45.1 | 0.00 | 8.99 | 1.65 | 97 | 1009.7 |
| 20260506123126 | 3 | 81 | 20.9 | 45.1 | 0.00 | 8.99 | 1.65 | 97 | 1009.5 |
| 20260506122629 | 3 | 129 | 29.0 | 40.2 | 0.00 | 8.99 | 1.65 | 97 | 1009.5 |
| 20260506122133 | 3 | 131 | 16.1 | 30.6 | 0.00 | 8.99 | 1.65 | 97 | 1009.8 |
| 20260506121637 | 3 | 135 | 19.3 | 30.6 | 0.00 | 8.99 | 1.65 | 97 | 1009.6 |
| 20260506121122 | 3 | 138 | 20.9 | 30.6 | 0.00 | 8.99 | 1.65 | 97 | 1009.8 |
| 20260506120627 | 3 | 130 | 17.7 | 37.0 | 0.00 | 9.60 | 1.65 | 97 | 1009.8 |
| 20260506120134 | 4 | 252 | 19.3 | 40.2 | 0.00 | 9.60 | 1.65 | 97 | 1009.8 |
| 20260506115636 | 4 | 145 | 19.3 | 53.1 | 0.00 | 9.60 | 1.65 | 97 | 1009.9 |
| 20260506115140 | 4 | 129 | 30.6 | 53.1 | 0.00 | 9.60 | 1.65 | 97 | 1009.5 |
| 20260506114625 | 4 | 173 | 19.3 | 43.5 | 0.00 | 9.60 | 1.65 | 97 | 1010.0 |
| 20260506114130 | 3 | 136 | 27.4 | 41.8 | 0.00 | 9.60 | 1.65 | 97 | 1009.6 |
| 20260506113634 | 3 | 123 | 25.7 | 41.8 | 0.00 | 9.60 | 1.65 | 97 | 1009.8 |
| 20260506113138 | 3 | 132 | 27.4 | 41.8 | 0.00 | 9.60 | 1.65 | 97 | 1009.7 |
| 20260506112641 | 5 | 113 | 16.1 | 33.8 | 0.00 | 9.60 | 1.65 | 97 | 1009.9 |
| 20260506112124 | 4 | 169 | 14.5 | 33.8 | 0.00 | 9.60 | 1.65 | 97 | 1010.1 |
| 20260506111628 | 3 | 153 | 11.3 | 29.0 | 0.00 | 9.60 | 1.65 | 97 | 1010.1 |
| 20260506111132 | 3 | 150 | 16.1 | 46.7 | 0.00 | 9.60 | 1.65 | 97 | 1010.1 |
| 20260506110641 | 3 | 119 | 27.4 | 46.7 | 0.00 | 10.31 | 1.65 | 97 | 1009.9 |
| 20260506110124 | 3 | 119 | 27.4 | 41.8 | 0.00 | 10.31 | 1.65 | 97 | 1009.8 |
| 20260506105628 | 3 | 136 | 17.7 | 40.2 | 0.00 | 10.31 | 1.65 | 97 | 1010.3 |
| 20260506105130 | 3 | 130 | 19.3 | 46.7 | 0.10 | 10.31 | 1.65 | 97 | 1010.0 |
| 20260506104634 | 2 | 136 | 27.4 | 46.7 | 0.10 | 10.31 | 1.65 | 97 | 1010.1 |
| 20260506104138 | 2 | 130 | 27.4 | 46.7 | 0.20 | 10.31 | 1.65 | 97 | 1010.0 |
| 20260506103623 | 2 | 138 | 29.0 | 41.8 | 0.30 | 10.31 | 1.65 | 97 | 1010.0 |
| 20260506103128 | 2 | 99 | 30.6 | 38.6 | 0.61 | 10.31 | 1.65 | 97 | 1010.0 |
| 20260506102633 | 2 | 195 | 24.1 | 49.9 | 0.61 | 10.31 | 1.65 | 97 | 1010.1 |
| 20260506102135 | 2 | 132 | 37.0 | 51.5 | 0.79 | 10.31 | 1.65 | 97 | 1009.8 |
| 20260506101624 | 2 | 69 | 25.7 | 51.5 | 1.09 | 10.31 | 1.65 | 97 | 1009.7 |
| 20260506101128 | 2 | 160 | 33.8 | 48.3 | 1.40 | 10.31 | 1.65 | 97 | 1010.1 |
| 20260506100631 | 2 | 127 | 37.0 | 67.6 | 1.60 | 11.10 | 1.65 | 97 | 1009.9 |
| 20260506100134 | 2 | 355 | 30.6 | 72.4 | 1.80 | 11.10 | 1.65 | 97 | 1009.6 |
| 20260506095638 | 2 | 144 | 32.2 | 57.9 | 2.31 | 11.00 | 1.63 | 97 | 1009.2 |
| 20260506095123 | 2 | 134 | 37.0 | 59.5 | 2.59 | 11.00 | 1.63 | 97 | 1009.4 |
| 20260506094628 | 2 | 127 | 35.4 | 66.0 | 2.79 | 11.00 | 1.63 | 97 | 1009.9 |
| 20260506094133 | 2 | 164 | 40.2 | 66.0 | 2.69 | 10.90 | 1.60 | 97 | 1009.5 |
| 20260506093637 | 2 | 144 | 38.6 | 54.7 | 2.49 | 10.69 | 1.55 | 97 | 1009.4 |
| 20260506093142 | 2 | 319 | 29.0 | 59.5 | 2.31 | 10.49 | 1.50 | 97 | 1009.1 |
| 20260506092627 | 2 | 115 | 32.2 | 59.5 | 2.21 | 10.39 | 1.47 | 97 | 1008.8 |
| 20260506092136 | 2 | 307 | 20.9 | 41.8 | 2.11 | 10.31 | 1.45 | 97 | 1008.8 |
| 20260506091640 | 2 | 36 | 24.1 | 40.2 | 1.80 | 10.01 | 1.37 | 97 | 1008.4 |
| 20260506091125 | 2 | 14 | 19.3 | 43.5 | 1.50 | 9.70 | 1.30 | 96 | 1009.0 |
| 20260506090630 | 2 | 86 | 20.9 | 43.5 | 1.19 | 10.90 | 1.22 | 96 | 1008.8 |
| 20260506090132 | 1 | 109 | 24.1 | 41.8 | 0.99 | 10.69 | 1.17 | 96 | 1008.8 |
| 20260506085636 | 1 | 100 | 17.7 | 32.2 | 0.51 | 10.21 | 1.04 | 96 | 1009.0 |
| 20260506085141 | 2 | 303 | 17.7 | 38.6 | 0.20 | 9.91 | 0.97 | 96 | 1009.0 |
| 20260506084625 | 2 | 191 | 17.7 | 46.7 | 0.00 | 9.70 | 0.91 | 96 | 1009.0 |
| 20260506084130 | 2 | 117 | 29.0 | 46.7 | 0.00 | 9.70 | 0.91 | 96 | 1008.5 |
| 20260506083634 | 2 | 5 | 19.3 | 41.8 | 0.00 | 9.70 | 0.91 | 96 | 1008.8 |
| 20260506083123 | 2 | 280 | 20.9 | 45.1 | 0.00 | 9.70 | 0.91 | 95 | 1008.8 |
| 20260506082626 | 3 | 81 | 29.0 | 46.7 | 0.00 | 9.70 | 0.91 | 96 | 1008.8 |
| 20260506082131 | 3 | 82 | 29.0 | 46.7 | 0.00 | 9.70 | 0.91 | 96 | 1008.6 |
| 20260506081636 | 3 | 40 | 29.0 | 41.8 | 0.00 | 9.70 | 0.91 | 96 | 1008.6 |
| 20260506081141 | 3 | 128 | 20.9 | 46.7 | 0.00 | 9.70 | 0.91 | 96 | 1008.9 |
| 20260506080626 | 3 | 331 | 27.4 | 46.7 | 0.00 | 10.79 | 0.91 | 96 | 1008.5 |
| 20260506080131 | 3 | 348 | 22.5 | 46.7 | 0.00 | 10.79 | 0.91 | 96 | 1008.5 |
| 20260506073136 | 3 | 234 | 16.1 | 33.8 | 0.10 | 10.79 | 0.91 | 97 | 1009.0 |
| 20260506072640 | 3 | 186 | 16.1 | 33.8 | 0.10 | 10.79 | 0.91 | 97 | 1009.0 |
| 20260506072125 | 2 | 103 | 17.7 | 41.8 | 0.10 | 10.79 | 0.91 | 96 | 1008.9 |
| 20260506071631 | 2 | 63 | 20.9 | 41.8 | 0.10 | 10.79 | 0.91 | 96 | 1009.0 |
| 20260506071135 | 2 | 234 | 19.3 | 41.8 | 0.10 | 10.79 | 0.91 | 96 | 1009.0 |
| 20260506070640 | 2 | 35 | 17.7 | 41.8 | 0.10 | 11.40 | 0.91 | 97 | 1008.8 |
| 20260506070125 | 2 | 18 | 22.5 | 41.8 | 0.20 | 11.40 | 0.91 | 97 | 1009.0 |
| 20260506062136 | 2 | 195 | 16.1 | 32.2 | 0.71 | 11.30 | 0.89 | 97 | 1009.3 |
| 20260506061640 | 2 | 121 | 22.5 | 32.2 | 0.79 | 11.30 | 0.89 | 97 | 1009.5 |
| 20260506061123 | 2 | 5 | 17.7 | 46.7 | 0.79 | 11.30 | 0.89 | 97 | 1009.6 |
| 20260506060627 | 2 | 132 | 19.3 | 46.7 | 0.99 | 11.51 | 0.89 | 97 | 1009.5 |
| 20260506060131 | 1 | 26 | 19.3 | 30.6 | 0.89 | 11.40 | 0.86 | 97 | 1009.5 |
| 20260506051133 | 1 | 63 | 12.9 | 27.4 | 0.30 | 10.59 | 0.66 | 97 | 1009.9 |
| 20260506050636 | 2 | 260 | 9.7 | 24.1 | 0.20 | 10.49 | 0.64 | 97 | 1009.8 |
| 20260506050140 | 2 | 21 | 11.3 | 30.6 | 0.30 | 10.49 | 0.64 | 97 | 1009.8 |
| 20260506045130 | 1 | 125 | 17.7 | 29.0 | 0.20 | 10.39 | 0.61 | 97 | 1010.3 |
| 20260506044634 | 1 | 164 | 17.7 | 29.0 | 0.10 | 10.31 | 0.58 | 97 | 1010.3 |
| 20260506044139 | 2 | 355 | 9.7 | 25.7 | 0.10 | 10.31 | 0.58 | 97 | 1010.3 |
| 20260506043623 | 2 | 144 | 19.3 | 25.7 | 0.10 | 10.31 | 0.58 | 97 | 1010.4 |
| 20260506043128 | 1 | 113 | 11.3 | 27.4 | 0.10 | 10.31 | 0.58 | 97 | 1010.3 |
| 20260506042632 | 2 | 126 | 17.7 | 27.4 | 0.10 | 10.31 | 0.58 | 97 | 1010.3 |
| 20260506042137 | 2 | 142 | 8.0 | 32.2 | 0.10 | 10.31 | 0.58 | 97 | 1010.2 |
| 20260506041642 | 2 | 138 | 11.3 | 32.2 | 0.10 | 10.31 | 0.58 | 97 | 1010.2 |
| 20260506041127 | 2 | 151 | 16.1 | 32.2 | 0.10 | 10.31 | 0.58 | 97 | 1010.1 |
| 20260506040632 | 2 | 123 | 22.5 | 30.6 | 0.10 | 10.31 | 0.58 | 97 | 1010.1 |
| 20260506040141 | 2 | 279 | 11.3 | 25.7 | 0.00 | 10.21 | 0.56 | 97 | 1010.0 |
| 20260506035626 | 2 | 30 | 16.1 | 25.7 | 0.00 | 10.21 | 0.56 | 97 | 1010.3 |
| 20260506035130 | 2 | 132 | 16.1 | 24.1 | 0.00 | 10.21 | 0.56 | 97 | 1010.3 |
| 20260506034635 | 2 | 134 | 16.1 | 24.1 | 0.10 | 10.21 | 0.56 | 97 | 1010.3 |
| 20260506034138 | 2 | 193 | 14.5 | 24.1 | 0.10 | 10.21 | 0.56 | 97 | 1010.2 |
| 20260506033624 | 2 | 128 | 9.7 | 24.1 | 0.10 | 10.21 | 0.56 | 97 | 1010.2 |
| 20260506033129 | 2 | 51 | 9.7 | 24.1 | 0.10 | 10.21 | 0.56 | 97 | 1010.2 |
| 20260506032634 | 2 | 98 | 16.1 | 27.4 | 0.10 | 10.21 | 0.56 | 97 | 1010.3 |
| 20260506032140 | 2 | 124 | 20.9 | 27.4 | 0.10 | 10.21 | 0.56 | 97 | 1010.2 |
| 20260506031625 | 2 | 145 | 17.7 | 27.4 | 0.10 | 10.21 | 0.56 | 97 | 1010.4 |
| 20260506031133 | 2 | 128 | 19.3 | 27.4 | 0.10 | 10.21 | 0.56 | 97 | 1010.5 |
| 20260506030638 | 2 | 124 | 17.7 | 29.0 | 0.10 | 10.21 | 0.56 | 97 | 1010.5 |
| 20260506030123 | 2 | 135 | 17.7 | 29.0 | 0.10 | 10.21 | 0.56 | 97 | 1010.5 |
| 20260506025630 | 3 | 138 | 12.9 | 22.5 | 0.10 | 10.21 | 0.56 | 97 | 1010.7 |
| 20260506025134 | 3 | 150 | 14.5 | 20.9 | 0.10 | 10.21 | 0.56 | 97 | 1010.8 |
| 20260506024638 | 3 | 118 | 12.9 | 22.5 | 0.00 | 10.11 | 0.53 | 97 | 1011.0 |
| 20260506024123 | 3 | 134 | 16.1 | 22.5 | 0.00 | 10.11 | 0.53 | 97 | 1011.1 |
| 20260506023627 | 3 | 277 | 8.0 | 16.1 | 0.00 | 10.11 | 0.53 | 97 | 1011.0 |
| 20260506023133 | 3 | 144 | 8.0 | 19.3 | 0.00 | 10.11 | 0.53 | 97 | 1011.1 |
| 20260506022638 | 3 | 80 | 9.7 | 24.1 | 0.00 | 10.11 | 0.53 | 97 | 1011.2 |
| 20260506022127 | 3 | 148 | 11.3 | 24.1 | 0.10 | 10.11 | 0.53 | 97 | 1011.2 |
| 20260506021632 | 3 | 77 | 11.3 | 22.5 | 0.10 | 10.11 | 0.53 | 97 | 1011.1 |
| 20260506021137 | 3 | 78 | 14.5 | 22.5 | 0.10 | 10.11 | 0.53 | 97 | 1011.3 |
| 20260506020641 | 3 | 145 | 9.7 | 20.9 | 0.10 | 10.11 | 0.53 | 97 | 1011.2 |
| 20260506020126 | 3 | 360 | 9.7 | 20.9 | 0.20 | 10.11 | 0.53 | 97 | 1011.3 |
| 20260506015631 | 3 | 138 | 11.3 | 24.1 | 0.20 | 10.11 | 0.53 | 97 | 1011.3 |
| 20260506015136 | 3 | 148 | 16.1 | 25.7 | 0.20 | 10.11 | 0.53 | 97 | 1011.3 |
| 20260506014641 | 3 | 115 | 16.1 | 24.1 | 0.30 | 10.11 | 0.53 | 97 | 1011.3 |
| 20260506014125 | 3 | 132 | 14.5 | 24.1 | 0.30 | 10.11 | 0.53 | 97 | 1011.3 |
| 20260506013631 | 3 | 137 | 17.7 | 24.1 | 0.41 | 10.11 | 0.53 | 97 | 1011.1 |
| 20260506013136 | 3 | 136 | 14.5 | 24.1 | 0.41 | 10.11 | 0.53 | 97 | 1011.1 |
| 20260506012624 | 3 | 121 | 14.5 | 24.1 | 0.41 | 10.11 | 0.53 | 97 | 1011.2 |
| 20260506012129 | 3 | 128 | 17.7 | 25.7 | 0.51 | 10.01 | 0.51 | 97 | 1011.5 |
| 20260506011633 | 3 | 138 | 16.1 | 25.7 | 0.71 | 10.01 | 0.51 | 97 | 1011.2 |
| 20260506011138 | 3 | 161 | 16.1 | 22.5 | 0.71 | 10.01 | 0.51 | 97 | 1011.2 |
| 20260506010642 | 3 | 138 | 16.1 | 22.5 | 0.71 | 10.01 | 0.51 | 97 | 1011.5 |
| 20260506010127 | 3 | 94 | 6.4 | 20.9 | 0.61 | 9.91 | 0.48 | 97 | 1011.5 |
| 20260506005631 | 3 | 121 | 12.9 | 24.1 | 0.71 | 9.91 | 0.48 | 97 | 1011.6 |
| 20260506005135 | 3 | 133 | 11.3 | 25.7 | 0.61 | 9.80 | 0.46 | 97 | 1011.6 |
| 20260506004639 | 3 | 129 | 19.3 | 29.0 | 0.79 | 9.80 | 0.46 | 97 | 1011.6 |
| 20260506004142 | 3 | 134 | 12.9 | 32.2 | 0.79 | 9.80 | 0.46 | 97 | 1011.7 |
| 20260506003631 | 3 | 142 | 20.9 | 32.2 | 0.79 | 9.70 | 0.43 | 97 | 1011.7 |
| 20260506003135 | 3 | 303 | 19.3 | 32.2 | 0.79 | 9.70 | 0.43 | 97 | 1011.6 |
| 20260506002639 | 3 | 117 | 17.7 | 27.4 | 0.79 | 9.70 | 0.43 | 97 | 1011.7 |
| 20260506002125 | 3 | 128 | 17.7 | 27.4 | 0.51 | 9.40 | 0.36 | 97 | 1011.9 |
| 20260506001630 | 3 | 121 | 17.7 | 29.0 | 0.41 | 9.30 | 0.33 | 97 | 1012.0 |
| 20260506001135 | 3 | 155 | 19.3 | 30.6 | 0.41 | 9.30 | 0.33 | 97 | 1012.1 |
| 20260506000640 | 3 | 124 | 22.5 | 33.8 | 0.51 | 9.30 | 0.33 | 97 | 1012.0 |
| 20260506000126 | 3 | 126 | 16.1 | 32.2 | 0.61 | 9.30 | 0.33 | 97 | 1012.0 |